Year,Month,Day,Hour,Minute,Value (Times are PST for temperature in C)
2017,09,30,00,00,10.90
2017,09,30,00,01,10.90
2017,09,30,00,02,11.00
2017,09,30,00,03,11.10
2017,09,30,00,04,11.10
2017,09,30,00,05,11.10
2017,09,30,00,06,11.20
2017,09,30,00,07,11.20
2017,09,30,00,08,11.30
2017,09,30,00,09,11.30
2017,09,30,00,10,11.30
2017,09,30,00,11,11.20
2017,09,30,00,12,11.20
2017,09,30,00,13,11.20
2017,09,30,00,14,11.20
2017,09,30,00,15,11.10
2017,09,30,00,16,11.10
2017,09,30,00,17,11.10
2017,09,30,00,18,11.10
2017,09,30,00,19,11.00
2017,09,30,00,20,11.00
2017,09,30,00,21,10.90
2017,09,30,00,22,10.90
2017,09,30,00,23,10.90
2017,09,30,00,24,10.90
2017,09,30,00,25,10.90
2017,09,30,00,26,11.00
2017,09,30,00,27,11.00
2017,09,30,00,28,11.00
2017,09,30,00,29,10.90
2017,09,30,00,30,10.90
2017,09,30,00,31,10.90
2017,09,30,00,32,10.90
2017,09,30,00,33,10.90
2017,09,30,00,34,10.90
2017,09,30,00,35,10.90
2017,09,30,00,36,10.90
2017,09,30,00,37,11.00
2017,09,30,00,38,11.10
2017,09,30,00,39,11.20
2017,09,30,00,40,11.40
2017,09,30,00,41,11.50
2017,09,30,00,42,11.60
2017,09,30,00,43,11.70
2017,09,30,00,44,11.80
2017,09,30,00,45,11.90
2017,09,30,00,46,11.90
2017,09,30,00,47,11.70
2017,09,30,00,48,11.60
2017,09,30,00,49,11.60
2017,09,30,00,50,11.50
2017,09,30,00,51,11.40
2017,09,30,00,52,11.40
2017,09,30,00,53,11.40
2017,09,30,00,54,11.40
2017,09,30,00,55,11.40
2017,09,30,00,56,11.40
2017,09,30,00,57,11.40
2017,09,30,00,58,11.40
2017,09,30,00,59,11.30
2017,09,30,01,00,11.30
2017,09,30,01,01,11.30
2017,09,30,01,02,11.30
2017,09,30,01,03,11.30
2017,09,30,01,04,11.30
2017,09,30,01,05,11.30
2017,09,30,01,06,11.40
2017,09,30,01,07,11.40
2017,09,30,01,08,11.40
2017,09,30,01,09,11.40
2017,09,30,01,10,11.40
2017,09,30,01,11,11.40
2017,09,30,01,12,11.40
2017,09,30,01,13,11.40
2017,09,30,01,14,11.30
2017,09,30,01,15,11.30
2017,09,30,01,16,11.20
2017,09,30,01,17,11.20
2017,09,30,01,18,11.20
2017,09,30,01,19,11.20
2017,09,30,01,20,11.20
2017,09,30,01,21,11.20
2017,09,30,01,22,11.10
2017,09,30,01,23,11.10
2017,09,30,01,24,11.10
2017,09,30,01,25,11.10
2017,09,30,01,26,11.00
2017,09,30,01,27,11.00
2017,09,30,01,28,11.00
2017,09,30,01,29,10.90
2017,09,30,01,30,10.90
2017,09,30,01,31,10.90
2017,09,30,01,32,10.90
2017,09,30,01,33,10.90
2017,09,30,01,34,10.90
2017,09,30,01,35,10.90
2017,09,30,01,36,10.90
2017,09,30,01,37,10.90
2017,09,30,01,38,10.90
2017,09,30,01,39,10.90
2017,09,30,01,40,10.90
2017,09,30,01,41,10.90
2017,09,30,01,42,10.90
2017,09,30,01,43,10.90
2017,09,30,01,44,10.90
2017,09,30,01,45,10.90
2017,09,30,01,46,10.90
2017,09,30,01,47,10.90
2017,09,30,01,48,10.90
2017,09,30,01,49,10.90
2017,09,30,01,50,10.90
2017,09,30,01,51,10.90
2017,09,30,01,52,10.90
2017,09,30,01,53,10.90
2017,09,30,01,54,10.90
2017,09,30,01,55,10.90
2017,09,30,01,56,10.80
2017,09,30,01,57,10.80
2017,09,30,01,58,10.80
2017,09,30,01,59,10.80
2017,09,30,02,00,10.70
2017,09,30,02,01,10.70
2017,09,30,02,02,10.70
2017,09,30,02,03,10.60
2017,09,30,02,04,10.60
2017,09,30,02,05,10.60
2017,09,30,02,06,10.60
2017,09,30,02,07,10.60
2017,09,30,02,08,10.60
2017,09,30,02,09,10.50
2017,09,30,02,10,10.50
2017,09,30,02,11,10.50
2017,09,30,02,12,10.50
2017,09,30,02,13,10.50
2017,09,30,02,14,10.60
2017,09,30,02,15,10.60
2017,09,30,02,16,10.60
2017,09,30,02,17,10.60
2017,09,30,02,18,10.60
2017,09,30,02,19,10.60
2017,09,30,02,20,10.50
2017,09,30,02,21,10.50
2017,09,30,02,22,10.50
2017,09,30,02,23,10.50
2017,09,30,02,24,10.50
2017,09,30,02,25,10.50
2017,09,30,02,26,10.50
2017,09,30,02,27,10.50
2017,09,30,02,28,10.50
2017,09,30,02,29,10.50
2017,09,30,02,30,10.50
2017,09,30,02,31,10.50
2017,09,30,02,32,10.40
2017,09,30,02,33,10.40
2017,09,30,02,34,10.40
2017,09,30,02,35,10.40
2017,09,30,02,36,10.50
2017,09,30,02,37,10.50
2017,09,30,02,38,10.50
2017,09,30,02,39,10.50
2017,09,30,02,40,10.50
2017,09,30,02,41,10.60
2017,09,30,02,42,10.60
2017,09,30,02,43,10.60
2017,09,30,02,44,10.70
2017,09,30,02,45,10.70
2017,09,30,02,46,10.70
2017,09,30,02,47,10.70
2017,09,30,02,48,10.70
2017,09,30,02,49,10.80
2017,09,30,02,50,10.80
2017,09,30,02,51,10.80
2017,09,30,02,52,10.80
2017,09,30,02,53,10.80
2017,09,30,02,54,10.80
2017,09,30,02,55,10.80
2017,09,30,02,56,10.80
2017,09,30,02,57,10.80
2017,09,30,02,58,10.80
2017,09,30,02,59,10.80
2017,09,30,03,00,10.80
2017,09,30,03,01,10.80
2017,09,30,03,02,10.80
2017,09,30,03,03,10.80
2017,09,30,03,04,10.80
2017,09,30,03,05,10.80
2017,09,30,03,06,10.80
2017,09,30,03,07,10.80
2017,09,30,03,08,10.80
2017,09,30,03,09,10.80
2017,09,30,03,10,10.80
2017,09,30,03,11,10.80
2017,09,30,03,12,10.80
2017,09,30,03,13,10.80
2017,09,30,03,14,10.80
2017,09,30,03,15,10.80
2017,09,30,03,16,10.80
2017,09,30,03,17,10.80
2017,09,30,03,18,10.80
2017,09,30,03,19,10.80
2017,09,30,03,20,10.80
2017,09,30,03,21,10.80
2017,09,30,03,22,10.80
2017,09,30,03,23,10.80
2017,09,30,03,24,10.80
2017,09,30,03,25,10.80
2017,09,30,03,26,10.80
2017,09,30,03,27,10.80
2017,09,30,03,28,10.70
2017,09,30,03,29,10.70
2017,09,30,03,30,10.80
2017,09,30,03,31,10.80
2017,09,30,03,32,10.80
2017,09,30,03,33,10.80
2017,09,30,03,34,10.80
2017,09,30,03,35,10.80
2017,09,30,03,36,10.80
2017,09,30,03,37,10.70
2017,09,30,03,38,10.70
2017,09,30,03,39,10.70
2017,09,30,03,40,10.70
2017,09,30,03,41,10.60
2017,09,30,03,42,10.60
2017,09,30,03,43,10.60
2017,09,30,03,44,10.60
2017,09,30,03,45,10.50
2017,09,30,03,46,10.50
2017,09,30,03,47,10.50
2017,09,30,03,48,10.50
2017,09,30,03,49,10.40
2017,09,30,03,50,10.40
2017,09,30,03,51,10.30
2017,09,30,03,52,10.30
2017,09,30,03,53,10.20
2017,09,30,03,54,10.20
2017,09,30,03,55,10.10
2017,09,30,03,56,10.10
2017,09,30,03,57,10.10
2017,09,30,03,58,10.00
2017,09,30,03,59,9.90
2017,09,30,04,00,9.90
2017,09,30,04,01,9.90
2017,09,30,04,02,9.80
2017,09,30,04,03,9.80
2017,09,30,04,04,9.80
2017,09,30,04,05,9.70
2017,09,30,04,06,9.70
2017,09,30,04,07,9.70
2017,09,30,04,08,9.70
2017,09,30,04,09,9.70
2017,09,30,04,10,9.70
2017,09,30,04,11,9.60
2017,09,30,04,12,9.60
2017,09,30,04,13,9.60
2017,09,30,04,14,9.60
2017,09,30,04,15,9.60
2017,09,30,04,16,9.50
2017,09,30,04,17,9.50
2017,09,30,04,18,9.40
2017,09,30,04,19,9.40
2017,09,30,04,20,9.40
2017,09,30,04,21,9.40
2017,09,30,04,22,9.40
2017,09,30,04,23,9.40
2017,09,30,04,24,9.40
2017,09,30,04,25,9.40
2017,09,30,04,26,9.30
2017,09,30,04,27,9.30
2017,09,30,04,28,9.30
2017,09,30,04,29,9.30
2017,09,30,04,30,9.30
2017,09,30,04,31,9.20
2017,09,30,04,32,9.20
2017,09,30,04,33,9.20
2017,09,30,04,34,9.10
2017,09,30,04,35,9.10
2017,09,30,04,36,9.00
2017,09,30,04,37,8.90
2017,09,30,04,38,8.80
2017,09,30,04,39,8.80
2017,09,30,04,40,8.80
2017,09,30,04,41,8.80
2017,09,30,04,42,8.80
2017,09,30,04,43,8.80
2017,09,30,04,44,8.80
2017,09,30,04,45,8.80
2017,09,30,04,46,8.70
2017,09,30,04,47,8.70
2017,09,30,04,48,8.70
2017,09,30,04,49,8.70
2017,09,30,04,50,8.60
2017,09,30,04,51,8.60
2017,09,30,04,52,8.60
2017,09,30,04,53,8.60
2017,09,30,04,54,8.70
2017,09,30,04,55,8.70
2017,09,30,04,56,8.70
2017,09,30,04,57,8.70
2017,09,30,04,58,8.70
2017,09,30,04,59,8.70
2017,09,30,05,00,8.70
2017,09,30,05,01,8.70
2017,09,30,05,02,8.70
2017,09,30,05,03,8.70
2017,09,30,05,04,8.70
2017,09,30,05,05,8.70
2017,09,30,05,06,8.70
2017,09,30,05,07,8.70
2017,09,30,05,08,8.70
2017,09,30,05,09,8.70
2017,09,30,05,10,8.70
2017,09,30,05,11,8.70
2017,09,30,05,12,8.70
2017,09,30,05,13,8.70
2017,09,30,05,14,8.70
2017,09,30,05,15,8.60
2017,09,30,05,16,8.60
2017,09,30,05,17,8.60
2017,09,30,05,18,8.50
2017,09,30,05,19,8.40
2017,09,30,05,20,8.40
2017,09,30,05,21,8.30
2017,09,30,05,22,8.30
2017,09,30,05,23,8.30
2017,09,30,05,24,8.40
2017,09,30,05,25,8.40
2017,09,30,05,26,8.40
2017,09,30,05,27,8.40
2017,09,30,05,28,8.40
2017,09,30,05,29,8.40
2017,09,30,05,30,8.40
2017,09,30,05,31,8.40
2017,09,30,05,32,8.40
2017,09,30,05,33,8.40
2017,09,30,05,34,8.50
2017,09,30,05,35,8.50
2017,09,30,05,36,8.50
2017,09,30,05,37,8.50
2017,09,30,05,38,8.50
2017,09,30,05,39,8.50
2017,09,30,05,40,8.50
2017,09,30,05,41,8.50
2017,09,30,05,42,8.50
2017,09,30,05,43,8.50
2017,09,30,05,44,8.60
2017,09,30,05,45,8.60
2017,09,30,05,46,8.60
2017,09,30,05,47,8.60
2017,09,30,05,48,8.50
2017,09,30,05,49,8.50
2017,09,30,05,50,8.40
2017,09,30,05,51,8.40
2017,09,30,05,52,8.40
2017,09,30,05,53,8.40
2017,09,30,05,54,8.40
2017,09,30,05,55,8.40
2017,09,30,05,56,8.40
2017,09,30,05,57,8.40
2017,09,30,05,58,8.40
2017,09,30,05,59,8.40
2017,09,30,06,00,8.40
2017,09,30,06,01,8.50
2017,09,30,06,02,8.50
2017,09,30,06,03,8.50
2017,09,30,06,04,8.50
2017,09,30,06,05,8.50
2017,09,30,06,06,8.50
2017,09,30,06,07,8.50
2017,09,30,06,08,8.60
2017,09,30,06,09,8.60
2017,09,30,06,10,8.60
2017,09,30,06,11,8.60
2017,09,30,06,12,8.60
2017,09,30,06,13,8.60
2017,09,30,06,14,8.60
2017,09,30,06,15,8.60
2017,09,30,06,16,8.60
2017,09,30,06,17,8.70
2017,09,30,06,18,8.70
2017,09,30,06,19,8.70
2017,09,30,06,20,8.70
2017,09,30,06,21,8.70
2017,09,30,06,22,8.70
2017,09,30,06,23,8.70
2017,09,30,06,24,8.70
2017,09,30,06,25,8.80
2017,09,30,06,26,8.80
2017,09,30,06,27,8.80
2017,09,30,06,28,8.90
2017,09,30,06,29,8.90
2017,09,30,06,30,8.90
2017,09,30,06,31,8.90
2017,09,30,06,32,9.00
2017,09,30,06,33,9.00
2017,09,30,06,34,9.00
2017,09,30,06,35,9.00
2017,09,30,06,36,9.00
2017,09,30,06,37,9.00
2017,09,30,06,38,9.00
2017,09,30,06,39,9.00
2017,09,30,06,40,9.00
2017,09,30,06,41,9.00
2017,09,30,06,42,9.00
2017,09,30,06,43,9.00
2017,09,30,06,44,9.00
2017,09,30,06,45,8.90
2017,09,30,06,46,8.90
2017,09,30,06,47,8.90
2017,09,30,06,48,8.90
2017,09,30,06,49,8.90
2017,09,30,06,50,8.80
2017,09,30,06,51,8.80
2017,09,30,06,52,8.90
2017,09,30,06,53,8.90
2017,09,30,06,54,8.90
2017,09,30,06,55,8.90
2017,09,30,06,56,8.80
2017,09,30,06,57,8.80
2017,09,30,06,58,8.90
2017,09,30,06,59,8.90
2017,09,30,07,00,8.90
2017,09,30,07,01,8.90
2017,09,30,07,02,8.90
2017,09,30,07,03,8.80
2017,09,30,07,04,8.80
2017,09,30,07,05,8.70
2017,09,30,07,06,8.70
2017,09,30,07,07,8.70
2017,09,30,07,08,8.70
2017,09,30,07,09,8.70
2017,09,30,07,10,8.60
2017,09,30,07,11,8.60
2017,09,30,07,12,8.50
2017,09,30,07,13,8.50
2017,09,30,07,14,8.40
2017,09,30,07,15,8.40
2017,09,30,07,16,8.40
2017,09,30,07,17,8.40
2017,09,30,07,18,8.40
2017,09,30,07,19,8.30
2017,09,30,07,20,8.30
2017,09,30,07,21,8.20
2017,09,30,07,22,8.20
2017,09,30,07,23,8.30
2017,09,30,07,24,8.30
2017,09,30,07,25,8.30
2017,09,30,07,26,8.40
2017,09,30,07,27,8.40
2017,09,30,07,28,8.40
2017,09,30,07,29,8.40
2017,09,30,07,30,8.30
2017,09,30,07,31,8.30
2017,09,30,07,32,8.30
2017,09,30,07,33,8.30
2017,09,30,07,34,8.30
2017,09,30,07,35,8.30
2017,09,30,07,36,8.30
2017,09,30,07,37,8.30
2017,09,30,07,38,8.30
2017,09,30,07,39,8.30
2017,09,30,07,40,8.30
2017,09,30,07,41,8.40
2017,09,30,07,42,8.50
2017,09,30,07,43,8.60
2017,09,30,07,44,8.70
2017,09,30,07,45,8.70
2017,09,30,07,46,8.60
2017,09,30,07,47,8.50
2017,09,30,07,48,8.40
2017,09,30,07,49,8.40
2017,09,30,07,50,8.40
2017,09,30,07,51,8.50
2017,09,30,07,52,8.60
2017,09,30,07,53,8.60
2017,09,30,07,54,8.50
2017,09,30,07,55,8.40
2017,09,30,07,56,8.30
2017,09,30,07,57,8.30
2017,09,30,07,58,8.20
2017,09,30,07,59,8.10
2017,09,30,08,00,8.10
2017,09,30,08,01,8.10
2017,09,30,08,02,8.00
2017,09,30,08,03,8.00
2017,09,30,08,04,8.10
2017,09,30,08,05,8.00
2017,09,30,08,06,8.10
2017,09,30,08,07,8.10
2017,09,30,08,08,8.20
2017,09,30,08,09,8.20
2017,09,30,08,10,8.20
2017,09,30,08,11,8.20
2017,09,30,08,12,8.20
2017,09,30,08,13,8.30
2017,09,30,08,14,8.30
2017,09,30,08,15,8.40
2017,09,30,08,16,8.50
2017,09,30,08,17,8.60
2017,09,30,08,18,8.70
2017,09,30,08,19,8.70
2017,09,30,08,20,8.70
2017,09,30,08,21,8.80
2017,09,30,08,22,8.80
2017,09,30,08,23,8.90
2017,09,30,08,24,9.00
2017,09,30,08,25,9.00
2017,09,30,08,26,9.10
2017,09,30,08,27,9.20
2017,09,30,08,28,9.20
2017,09,30,08,29,9.20
2017,09,30,08,30,9.30
2017,09,30,08,31,9.40
2017,09,30,08,32,9.50
2017,09,30,08,33,9.60
2017,09,30,08,34,9.70
2017,09,30,08,35,9.70
2017,09,30,08,36,9.80
2017,09,30,08,37,9.90
2017,09,30,08,38,10.00
2017,09,30,08,39,10.10
2017,09,30,08,40,10.10
2017,09,30,08,41,10.20
2017,09,30,08,42,10.30
2017,09,30,08,43,10.30
2017,09,30,08,44,10.30
2017,09,30,08,45,10.30
2017,09,30,08,46,10.30
2017,09,30,08,47,10.40
2017,09,30,08,48,10.50
2017,09,30,08,49,10.50
2017,09,30,08,50,10.60
2017,09,30,08,51,10.80
2017,09,30,08,52,10.90
2017,09,30,08,53,11.10
2017,09,30,08,54,11.20
2017,09,30,08,55,11.30
2017,09,30,08,56,11.30
2017,09,30,08,57,11.40
2017,09,30,08,58,11.50
2017,09,30,08,59,11.50
2017,09,30,09,00,11.60
2017,09,30,09,01,11.60
2017,09,30,09,02,11.60
2017,09,30,09,03,11.60
2017,09,30,09,04,11.60
2017,09,30,09,05,11.60
2017,09,30,09,06,11.60
2017,09,30,09,07,11.60
2017,09,30,09,08,11.60
2017,09,30,09,09,11.60
2017,09,30,09,10,11.70
2017,09,30,09,11,11.60
2017,09,30,09,12,11.60
2017,09,30,09,13,11.60
2017,09,30,09,14,11.60
2017,09,30,09,15,11.60
2017,09,30,09,16,11.70
2017,09,30,09,17,11.70
2017,09,30,09,18,11.70
2017,09,30,09,19,11.80
2017,09,30,09,20,11.90
2017,09,30,09,21,11.90
2017,09,30,09,22,12.00
2017,09,30,09,23,12.00
2017,09,30,09,24,12.00
2017,09,30,09,25,12.00
2017,09,30,09,26,12.00
2017,09,30,09,27,12.00
2017,09,30,09,28,12.00
2017,09,30,09,29,12.10
2017,09,30,09,30,12.10
2017,09,30,09,31,12.10
2017,09,30,09,32,12.10
2017,09,30,09,33,12.10
2017,09,30,09,34,12.10
2017,09,30,09,35,12.10
2017,09,30,09,36,12.10
2017,09,30,09,37,12.10
2017,09,30,09,38,12.10
2017,09,30,09,39,12.10
2017,09,30,09,40,12.00
2017,09,30,09,41,12.00
2017,09,30,09,42,11.90
2017,09,30,09,43,11.90
2017,09,30,09,44,11.90
2017,09,30,09,45,11.90
2017,09,30,09,46,11.90
2017,09,30,09,47,11.90
2017,09,30,09,48,11.90
2017,09,30,09,49,12.00
2017,09,30,09,50,12.00
2017,09,30,09,51,12.00
2017,09,30,09,52,12.00
2017,09,30,09,53,12.10
2017,09,30,09,54,12.10
2017,09,30,09,55,12.10
2017,09,30,09,56,12.20
2017,09,30,09,57,12.20
2017,09,30,09,58,12.20
2017,09,30,09,59,12.20
2017,09,30,10,00,12.20
2017,09,30,10,01,12.20
2017,09,30,10,02,12.20
2017,09,30,10,03,12.20
2017,09,30,10,04,12.20
2017,09,30,10,05,12.20
2017,09,30,10,06,12.20
2017,09,30,10,07,12.20
2017,09,30,10,08,12.20
2017,09,30,10,09,12.20
2017,09,30,10,10,12.20
2017,09,30,10,11,12.20
2017,09,30,10,12,12.20
2017,09,30,10,13,12.20
2017,09,30,10,14,12.20
2017,09,30,10,15,12.20
2017,09,30,10,16,12.20
2017,09,30,10,17,12.20
2017,09,30,10,18,12.30
2017,09,30,10,19,12.30
2017,09,30,10,20,12.30
2017,09,30,10,21,12.30
2017,09,30,10,22,12.30
2017,09,30,10,23,12.30
2017,09,30,10,24,12.30
2017,09,30,10,25,12.30
2017,09,30,10,26,12.30
2017,09,30,10,27,12.30
2017,09,30,10,28,12.30
2017,09,30,10,29,12.30
2017,09,30,10,30,12.30
2017,09,30,10,31,12.30
2017,09,30,10,32,12.30
2017,09,30,10,33,12.30
2017,09,30,10,34,12.30
2017,09,30,10,35,12.30
2017,09,30,10,36,12.30
2017,09,30,10,37,12.30
2017,09,30,10,38,12.30
2017,09,30,10,39,12.30
2017,09,30,10,40,12.30
2017,09,30,10,41,12.30
2017,09,30,10,42,12.30
2017,09,30,10,43,12.40
2017,09,30,10,44,12.40
2017,09,30,10,45,12.40
2017,09,30,10,46,12.40
2017,09,30,10,47,12.40
2017,09,30,10,48,12.30
2017,09,30,10,49,12.30
2017,09,30,10,50,12.30
2017,09,30,10,51,12.30
2017,09,30,10,52,12.30
2017,09,30,10,53,12.30
2017,09,30,10,54,12.20
2017,09,30,10,55,12.20
2017,09,30,10,56,12.20
2017,09,30,10,57,12.30
2017,09,30,10,58,12.30
2017,09,30,10,59,12.30
2017,09,30,11,00,12.40
2017,09,30,11,01,12.30
2017,09,30,11,02,12.30
2017,09,30,11,03,12.30
2017,09,30,11,04,12.30
2017,09,30,11,05,12.30
2017,09,30,11,06,12.30
2017,09,30,11,07,12.30
2017,09,30,11,08,12.30
2017,09,30,11,09,12.30
2017,09,30,11,10,12.30
2017,09,30,11,11,12.30
2017,09,30,11,12,12.40
2017,09,30,11,13,12.40
2017,09,30,11,14,12.40
2017,09,30,11,15,12.40
2017,09,30,11,16,12.50
2017,09,30,11,17,12.50
2017,09,30,11,18,12.50
2017,09,30,11,19,12.50
2017,09,30,11,20,12.50
2017,09,30,11,21,12.40
2017,09,30,11,22,12.40
2017,09,30,11,23,12.50
2017,09,30,11,24,12.50
2017,09,30,11,25,12.50
2017,09,30,11,26,12.50
2017,09,30,11,27,12.50
2017,09,30,11,28,12.40
2017,09,30,11,29,12.50
2017,09,30,11,30,12.40
2017,09,30,11,31,12.40
2017,09,30,11,32,12.40
2017,09,30,11,33,12.40
2017,09,30,11,34,12.40
2017,09,30,11,35,12.40
2017,09,30,11,36,12.40
2017,09,30,11,37,12.40
2017,09,30,11,38,12.40
2017,09,30,11,39,12.40
2017,09,30,11,40,12.40
2017,09,30,11,41,12.40
2017,09,30,11,42,12.40
2017,09,30,11,43,12.40
2017,09,30,11,44,12.30
2017,09,30,11,45,12.30
2017,09,30,11,46,12.30
2017,09,30,11,47,12.30
2017,09,30,11,48,12.30
2017,09,30,11,49,12.30
2017,09,30,11,50,12.30
2017,09,30,11,51,12.20
2017,09,30,11,52,12.20
2017,09,30,11,53,12.20
2017,09,30,11,54,12.20
2017,09,30,11,55,12.10
2017,09,30,11,56,12.10
2017,09,30,11,57,12.10
2017,09,30,11,58,12.10
2017,09,30,11,59,12.00
2017,09,30,12,00,12.00
2017,09,30,12,01,12.00
2017,09,30,12,02,12.00
2017,09,30,12,03,12.00
2017,09,30,12,04,11.90
2017,09,30,12,05,11.90
2017,09,30,12,06,11.90
2017,09,30,12,07,11.90
2017,09,30,12,08,11.90
2017,09,30,12,09,11.90
2017,09,30,12,10,11.90
2017,09,30,12,11,11.80
2017,09,30,12,12,11.80
2017,09,30,12,13,11.80
2017,09,30,12,14,11.80
2017,09,30,12,15,11.80
2017,09,30,12,16,11.80
2017,09,30,12,17,11.80
2017,09,30,12,18,11.80
2017,09,30,12,19,11.80
2017,09,30,12,20,11.80
2017,09,30,12,21,11.90
2017,09,30,12,22,11.90
2017,09,30,12,23,11.90
2017,09,30,12,24,11.90
2017,09,30,12,25,11.90
2017,09,30,12,26,11.90
2017,09,30,12,27,12.00
2017,09,30,12,28,12.00
2017,09,30,12,29,12.10
2017,09,30,12,30,12.10
2017,09,30,12,31,12.20
2017,09,30,12,32,12.20
2017,09,30,12,33,12.20
2017,09,30,12,34,12.20
2017,09,30,12,35,12.20
2017,09,30,12,36,12.30
2017,09,30,12,37,12.30
2017,09,30,12,38,12.30
2017,09,30,12,39,12.30
2017,09,30,12,40,12.30
2017,09,30,12,41,12.30
2017,09,30,12,42,12.30
2017,09,30,12,43,12.30
2017,09,30,12,44,12.30
2017,09,30,12,45,12.30
2017,09,30,12,46,12.20
2017,09,30,12,47,12.20
2017,09,30,12,48,12.20
2017,09,30,12,49,12.20
2017,09,30,12,50,12.30
2017,09,30,12,51,12.20
2017,09,30,12,52,12.30
2017,09,30,12,53,12.30
2017,09,30,12,54,12.30
2017,09,30,12,55,12.40
2017,09,30,12,56,12.40
2017,09,30,12,57,12.50
2017,09,30,12,58,12.50
2017,09,30,12,59,12.50
2017,09,30,13,00,12.60
2017,09,30,13,01,12.60
2017,09,30,13,02,12.60
2017,09,30,13,03,12.60
2017,09,30,13,04,12.70
2017,09,30,13,05,12.70
2017,09,30,13,06,12.70
2017,09,30,13,07,12.60
2017,09,30,13,08,12.60
2017,09,30,13,09,12.70
2017,09,30,13,10,12.70
2017,09,30,13,11,12.70
2017,09,30,13,12,12.70
2017,09,30,13,13,12.70
2017,09,30,13,14,12.70
2017,09,30,13,15,12.80
2017,09,30,13,16,12.80
2017,09,30,13,17,12.80
2017,09,30,13,18,12.80
2017,09,30,13,19,12.80
2017,09,30,13,20,12.80
2017,09,30,13,21,12.90
2017,09,30,13,22,12.90
2017,09,30,13,23,12.90
2017,09,30,13,24,12.90
2017,09,30,13,25,12.90
2017,09,30,13,26,13.00
2017,09,30,13,27,13.00
2017,09,30,13,28,13.10
2017,09,30,13,29,13.10
2017,09,30,13,30,13.10
2017,09,30,13,31,13.20
2017,09,30,13,32,13.20
2017,09,30,13,33,13.20
2017,09,30,13,34,13.20
2017,09,30,13,35,13.20
2017,09,30,13,36,13.10
2017,09,30,13,37,13.10
2017,09,30,13,38,13.10
2017,09,30,13,39,13.10
2017,09,30,13,40,13.10
2017,09,30,13,41,13.10
2017,09,30,13,42,13.10
2017,09,30,13,43,13.10
2017,09,30,13,44,13.20
2017,09,30,13,45,13.20
2017,09,30,13,46,13.20
2017,09,30,13,47,13.20
2017,09,30,13,48,13.20
2017,09,30,13,49,13.20
2017,09,30,13,50,13.20
2017,09,30,13,51,13.20
2017,09,30,13,52,13.20
2017,09,30,13,53,13.20
2017,09,30,13,54,13.20
2017,09,30,13,55,13.20
2017,09,30,13,56,13.30
2017,09,30,13,57,13.30
2017,09,30,13,58,13.30
2017,09,30,13,59,13.30
2017,09,30,14,00,13.30
2017,09,30,14,01,13.30
2017,09,30,14,02,13.30
2017,09,30,14,03,13.20
2017,09,30,14,04,13.20
2017,09,30,14,05,13.20
2017,09,30,14,06,13.20
2017,09,30,14,07,13.20
2017,09,30,14,08,13.30
2017,09,30,14,09,13.30
2017,09,30,14,10,13.30
2017,09,30,14,11,13.30
2017,09,30,14,12,13.30
2017,09,30,14,13,13.30
2017,09,30,14,14,13.20
2017,09,30,14,15,13.20
2017,09,30,14,16,13.20
2017,09,30,14,17,13.20
2017,09,30,14,18,13.20
2017,09,30,14,19,13.20
2017,09,30,14,20,13.30
2017,09,30,14,21,13.30
2017,09,30,14,22,13.30
2017,09,30,14,23,13.30
2017,09,30,14,24,13.20
2017,09,30,14,25,13.20
2017,09,30,14,26,13.20
2017,09,30,14,27,13.20
2017,09,30,14,28,13.20
2017,09,30,14,29,13.20
2017,09,30,14,30,13.20
2017,09,30,14,31,13.30
2017,09,30,14,32,13.30
2017,09,30,14,33,13.30
2017,09,30,14,34,13.30
2017,09,30,14,35,13.30
2017,09,30,14,36,13.30
2017,09,30,14,37,13.40
2017,09,30,14,38,13.30
2017,09,30,14,39,13.30
2017,09,30,14,40,13.30
2017,09,30,14,41,13.30
2017,09,30,14,42,13.30
2017,09,30,14,43,13.30
2017,09,30,14,44,13.30
2017,09,30,14,45,13.30
2017,09,30,14,46,13.20
2017,09,30,14,47,13.30
2017,09,30,14,48,13.20
2017,09,30,14,49,13.20
2017,09,30,14,50,13.20
2017,09,30,14,51,13.20
2017,09,30,14,52,13.20
2017,09,30,14,53,13.30
2017,09,30,14,54,13.30
2017,09,30,14,55,13.30
2017,09,30,14,56,13.30
2017,09,30,14,57,13.30
2017,09,30,14,58,13.30
2017,09,30,14,59,13.40
2017,09,30,15,00,13.40
2017,09,30,15,01,13.40
2017,09,30,15,02,13.40
2017,09,30,15,03,13.40
2017,09,30,15,04,13.50
2017,09,30,15,05,13.50
2017,09,30,15,06,13.40
2017,09,30,15,07,13.40
2017,09,30,15,08,13.40
2017,09,30,15,09,13.40
2017,09,30,15,10,13.40
2017,09,30,15,11,13.40
2017,09,30,15,12,13.40
2017,09,30,15,13,13.40
2017,09,30,15,14,13.40
2017,09,30,15,15,13.30
2017,09,30,15,16,13.30
2017,09,30,15,17,13.30
2017,09,30,15,18,13.30
2017,09,30,15,19,13.30
2017,09,30,15,20,13.30
2017,09,30,15,21,13.20
2017,09,30,15,22,13.30
2017,09,30,15,23,13.30
2017,09,30,15,24,13.40
2017,09,30,15,25,13.40
2017,09,30,15,26,13.40
2017,09,30,15,27,13.40
2017,09,30,15,28,13.40
2017,09,30,15,29,13.40
2017,09,30,15,30,13.40
2017,09,30,15,31,13.40
2017,09,30,15,32,13.50
2017,09,30,15,33,13.60
2017,09,30,15,34,13.60
2017,09,30,15,35,13.70
2017,09,30,15,36,13.60
2017,09,30,15,37,13.60
2017,09,30,15,38,13.70
2017,09,30,15,39,13.70
2017,09,30,15,40,13.70
2017,09,30,15,41,13.80
2017,09,30,15,42,13.80
2017,09,30,15,43,13.80
2017,09,30,15,44,13.70
2017,09,30,15,45,13.60
2017,09,30,15,46,13.60
2017,09,30,15,47,13.50
2017,09,30,15,48,13.50
2017,09,30,15,49,13.60
2017,09,30,15,50,13.60
2017,09,30,15,51,13.60
2017,09,30,15,52,13.60
2017,09,30,15,53,13.70
2017,09,30,15,54,13.70
2017,09,30,15,55,13.80
2017,09,30,15,56,13.80
2017,09,30,15,57,13.80
2017,09,30,15,58,13.80
2017,09,30,15,59,13.70
2017,09,30,16,00,13.70
2017,09,30,16,01,13.70
2017,09,30,16,02,13.80
2017,09,30,16,03,13.80
2017,09,30,16,04,13.80
2017,09,30,16,05,13.80
2017,09,30,16,06,13.80
2017,09,30,16,07,13.80
2017,09,30,16,08,13.80
2017,09,30,16,09,13.90
2017,09,30,16,10,14.00
2017,09,30,16,11,14.10
2017,09,30,16,12,14.10
2017,09,30,16,13,14.10
2017,09,30,16,14,14.10
2017,09,30,16,15,14.10
2017,09,30,16,16,14.10
2017,09,30,16,17,14.10
2017,09,30,16,18,14.10
2017,09,30,16,19,14.00
2017,09,30,16,20,14.00
2017,09,30,16,21,13.90
2017,09,30,16,22,13.90
2017,09,30,16,23,13.90
2017,09,30,16,24,13.80
2017,09,30,16,25,13.80
2017,09,30,16,26,13.80
2017,09,30,16,27,13.80
2017,09,30,16,28,13.80
2017,09,30,16,29,13.80
2017,09,30,16,30,13.80
2017,09,30,16,31,13.70
2017,09,30,16,32,13.70
2017,09,30,16,33,13.70
2017,09,30,16,34,13.70
2017,09,30,16,35,13.60
2017,09,30,16,36,13.60
2017,09,30,16,37,13.60
2017,09,30,16,38,13.50
2017,09,30,16,39,13.40
2017,09,30,16,40,13.40
2017,09,30,16,41,13.40
2017,09,30,16,42,13.40
2017,09,30,16,43,13.40
2017,09,30,16,44,13.40
2017,09,30,16,45,13.40
2017,09,30,16,46,13.50
2017,09,30,16,47,13.50
2017,09,30,16,48,13.40
2017,09,30,16,49,13.40
2017,09,30,16,50,13.40
2017,09,30,16,51,13.40
2017,09,30,16,52,13.40
2017,09,30,16,53,13.40
2017,09,30,16,54,13.40
2017,09,30,16,55,13.40
2017,09,30,16,56,13.40
2017,09,30,16,57,13.40
2017,09,30,16,58,13.30
2017,09,30,16,59,13.30
2017,09,30,17,00,13.30
2017,09,30,17,01,13.30
2017,09,30,17,02,13.30
2017,09,30,17,03,13.30
2017,09,30,17,04,13.20
2017,09,30,17,05,13.20
2017,09,30,17,06,13.20
2017,09,30,17,07,13.20
2017,09,30,17,08,13.20
2017,09,30,17,09,13.20
2017,09,30,17,10,13.20
2017,09,30,17,11,13.20
2017,09,30,17,12,13.10
2017,09,30,17,13,13.10
2017,09,30,17,14,13.10
2017,09,30,17,15,13.10
2017,09,30,17,16,13.10
2017,09,30,17,17,13.10
2017,09,30,17,18,13.10
2017,09,30,17,19,13.10
2017,09,30,17,20,13.10
2017,09,30,17,21,13.10
2017,09,30,17,22,13.10
2017,09,30,17,23,13.10
2017,09,30,17,24,13.10
2017,09,30,17,25,13.10
2017,09,30,17,26,13.10
2017,09,30,17,27,13.20
2017,09,30,17,28,13.20
2017,09,30,17,29,13.20
2017,09,30,17,30,13.30
2017,09,30,17,31,13.30